SL-14 DEB, 45350

Orbit data source: Space-Track

SL-14 DEB, 45350 is space debris in LEO originally from a launch on Thu, 15 Aug 1991 UTC launched from the Plesetsk Missile And Space Complex (PKMTR). Debris objects in space refer to the collection of defunct objects orbiting the Earth. Examples of debris include non-operational satellites, rocket bodies, and fragments generated from explosions, collisions, or faulty payload assembly.

Loading next visibility...
SL-14 DEB details
Identifier
45350, 1991-056CJ
Orbit
LEO
Last TLE update2 days ago
Origin
Flag of CISRosgidromet (CIS)
ManufacturerUnknown
MissionSpacecraft
Bus & MotorUnknown
MassUnknown
Launch date (UTC)
1991-08-15 (33 years ago)
Launch vehicleUnknown
Launch site
Plesetsk Missile And Space Complex (PKMTR)
Object type
Payload
Rocket body
Debris
Shape & HBRUnknown
Radar Cross SectionSmall (<0.1 m²)

Expand to show TLE details & history

TLE from 2 days ago
0 SL-14 DEB
1 45350U 91056CJ  24335.52158844  .00001151  00000-0  27508-2 0  9994
2 45350  82.5874 175.3371 0038622 285.2330  74.4526 13.21717267231331
Epoch: 2024-11-30T12:31Z
Definitive object data (Epoch: 2024-11-30T12:31:05.241Z)
Latitude-0.00004°
Longitude-82.3077°
Altitude1,173.264 km
Speed7.27 km/s
True Right ascension11h 41m 20s
True Declination0° 00' 00"
Sunlit
Object was in daylight at TLE epoch
Visualization TLE readout
Latitude18.64352°
Longitude-81.20349°
Altitude1,184.693 km
Speed7.261 km/s
Apparent Right ascension14h 28m 44s
Apparent Declination-22° 43' 21"
Sunlit
Object is in daylight
Visualization observer readout
Local Sidereal Time09:37:43
Azimuth118.167° SE
Elevation-2.186°
Doppler factor1
Orbital elements
Apogee altitude1,204.578 km
Perigee altitude1,146.231 km
Semi-major axis7,553.541 km
Eccentricity0.0038622
Inclination82.5874°
RAAN175.3371°
Arg. of periapsis285.233°
True anomaly74.87953°
Mean anomaly74.4526°
Eccentric anomaly74.66601°
Mean motion3.30611 °/min
BSTAR0.0027508
Orbital period108.89 mins
Loading maneuver chart data...
Loading historical data...
Loading historical data...
Loading historical data...
Loading historical data...
Loading historical data...
Loading historical data...
Loading historical data...

SL-14 DEB Visibility forecast

Observer location: undefined°, undefined

Span
Click to sort rows by Start time (UTC) header in descending order
Start Az.
Max El. time (UTC)
Max El. Az.
Max El.
End time (UTC)
End Az.
13 mins2024-12-02 13:39:55.335Z168.04° S2024-12-02 13:45:55.335Z107.016° ESE40.541°2024-12-02 13:52:55.335Z16.01° NNE
9 mins2024-12-02 15:32:55.335Z251.498° W2024-12-02 15:36:55.335Z294.334° NW22.633°2024-12-02 15:41:55.335Z340.691° N
4 mins2024-12-02 23:17:55.335Z47.22° ENE2024-12-02 23:19:55.335Z64.498° ENE12.93°2024-12-02 23:21:55.335Z81.477° E
13 mins2024-12-03 01:04:55.335Z356.33° N2024-12-03 01:10:55.335Z102.43° ESE44.368°2024-12-03 01:17:55.335Z168.953° S
7 mins2024-12-03 02:56:55.335Z305.015° NW2024-12-03 02:59:55.335Z276.822° WNW16.701°2024-12-03 03:03:55.335Z242.732° WSW
|